Regional Weather Roundup
Issued by NWS

Current Version | Previous Version | Text Only | Print | Product List | Glossary On
Versions: 1 2 3 4 5 6 7 8 9 10 11 12 13 14 15 16 17 18 19 20 21 22 23 24 25 26 27 28 29 30 31 32 33 34 35 36 37 38 39 40 41 42 43 44 45 46 47 48 49 50
000
ASUS46 KSEW 010310
RWRWA

WASHINGTON REGIONAL WEATHER ROUNDUP
NATIONAL WEATHER SERVICE SEATTLE WA
800 PM PDT SUN APR 30 2017

NOTE:"FAIR" INDICATES FEW OR NO CLOUDS BELOW 12,000 FEET WITH NO
SIGNIFICANT WEATHER AND/OR OBSTRUCTIONS TO VISIBILITY.

WAZ507-509-555>559-010400-
SEATTLE, TACOMA, EVERETT, AND VICINITY

CITY           SKY/WX    TMP DP  RH WIND       PRES   REMARKS
EVERETT        CLOUDY    50  41  71 CALM      30.32S
BOEING FIELD   CLOUDY    51  47  86 E7        30.32R
RENTON         LGT RAIN  50  48  93 SE3       30.32R
SEATAC AIRPORT LGT RAIN  49  46  90 E10       30.31S
JBLM-MCCHORD   CLOUDY    53  40  61 SW13      30.31R
PUYALLUP         N/A     52  41  66 S6        30.32R
BREMERTON      MOCLDY    49  44  83 NE8       30.30S
JBLM-FT LEWIS  NOT AVBL
TACOMA NARROWS MOCLDY    51  39  63 SW13G20   30.32R
$$

WAZ001-503-506-510-514-515-010400-
NORTH INTERIOR

CITY           SKY/WX    TMP DP  RH WIND       PRES   REMARKS
BELLINGHAM     CLEAR     53  42  66 S7        30.28S
FRIDAY HARBOR  MOCLDY    51  40  65 SW6       30.30S
EASTSOUND      PTCLDY    54  41  62 SW3       30.26F
PORT ANGELES   CLEAR     48  41  76 NW14G21   30.32F
EDIZ HOOK      FAIR      49  43  79 NW18      30.32S
PORT TOWNSEND  MOCLDY    50  41  71 NW12      30.32F
NAS WHIDBEY    MOCLDY    52  38  58 W20       30.33F
ARLINGTON      PTCLDY    50  36  57 NW7       30.35S
BURLINGTON     CLOUDY    52  37  58 VRB5      30.30S
$$

WAZ020-022-039-040-504-511-512-010400-
SOUTHWEST INTERIOR

CITY           SKY/WX    TMP DP  RH WIND       PRES   REMARKS
SHELTON        MOCLDY    51  39  63 SW16G24   30.29S
OLYMPIA        PTCLDY    50  39  66 W10       30.33R
CHEHALIS       MOCLDY    50  41  71 W6        30.35S
KELSO          CLOUDY    52  39  61 NW7       30.37S
VANCOUVER      CLEAR     54  36  50 NW10      30.34S
SCAPPOOSE, OR  CLEAR     52  36  54 NW7       30.35S
PORTLAND, OR   PTCLDY    54  37  52 N10       30.34S
$$

WAZ021-516-517-010400-
WASHINGTON COAST

CITY           SKY/WX    TMP DP  RH WIND       PRES   REMARKS
FORKS          PTCLDY    48  41  76 NW6       30.35F
HOQUIAM        CLOUDY    50  42  74 W12       30.36S
ASTORIA, OR    PTCLDY    48  38  68 W8        30.38S
$$

WAZ019-023-024-040-567>569-010400-
CASCADE MOUNTAINS AND COLUMBIA GORGE

CITY           SKY/WX    TMP DP  RH WIND       PRES   REMARKS
STAMPEDE PASS  HVY SNOW  33 N/A N/A VRB5      30.22S VSB 1/4
TROUTDALE, OR  CLEAR     55  36  48 VRB6      30.33S
THE DALLES, OR PTCLDY    56  34  43 W14G23    30.25S
$$

WAZ026-027-041>044-520-521-010400-
EAST SLOPES

CITY           SKY/WX    TMP DP  RH WIND       PRES   REMARKS
OMAK           MOCLDY    55  26  32 NW13      30.11R
WENATCHEE      PTCLDY    52  25  35 NW24G31   30.16R
ELLENSBURG     MOCLDY    48  33  56 NW20G28   30.19S
YAKIMA         MOCLDY    57  32  38 W7        30.18S
SUNNYSIDE ARPT MOCLDY    54  32  44 NW5       30.18R
$$

WAZ028-034-035-010400-
COLUMBIA BASIN

CITY           SKY/WX    TMP DP  RH WIND       PRES   REMARKS
EPHRATA        PTCLDY    55  22  27 NW18G28   30.11R
MOSES LAKE     PTCLDY    55  26  32 NW13      30.13R
PASCO          PTCLDY    55  33  43 NW13      30.17R
HERMISTON, OR  CLEAR     55  36  48 SW15      30.18R
$$

WAZ036>038-010400-
NORTHEAST WASHINGTON

CITY           SKY/WX    TMP DP  RH WIND       PRES   REMARKS
SPOKANE GEIGER PTCLDY    54  29  38 SW12      30.04S
SPOKANE FELTS  PTCLDY    56  30  37 SW15G21   30.03S
FAIRCHILD AFB  PTCLDY    49  29  46 W12       30.04R
COEURDALENE,ID CLOUDY    51  40  65 NE10      30.04R
DEER PARK      CLOUDY    54  35  48 CALM      30.03R
$$

WAZ029>033-010400-
SOUTHEAST WASHINGTON

CITY           SKY/WX    TMP DP  RH WIND       PRES   REMARKS
PULLMAN        PTCLDY    50  27  40 W9        30.12R
LEWISTON, ID   CLOUDY    56  29  35 W10G22    30.12R
WALLA WALLA    CLOUDY    56  34  43 W9        30.17R
PENDLETON, OR  PTCLDY    50  35  56 W16       30.18S
$$



USA.gov is the U.S. government's official web portal to all federal, state and local government web resources and services.